{"data":{"norad_id":45344,"epoch":"2026-09-20T03:36:55.923264Z","epoch_age_seconds":44613,"freshness":"FRESH","line1":"1 45344U 20017A   26263.15064726 -.00000143  00000+0  00000+0 0  9997","line2":"2 45344   2.5966  48.5054 0002223 127.9358 316.9159  1.00272480 24217","mean_motion":1.0027248,"eccentricity":0.0002223,"inclination_deg":2.5966,"raan_deg":48.5054,"arg_perigee_deg":127.9358,"mean_anomaly_deg":316.9159,"bstar":0,"rev_number":2421,"period_min":1436.0869502779,"perigee_km":35777.026951983,"apogee_km":35795.77330519,"semimajor_km":42164.537128587,"source":"CELESTRAK","updated_at":"2026-09-20T09:00:46.839207Z"}}